Terug naar catalogus

STARLINK-4705

ActiefCommunicatieVLEO
NORAD 53723·PAYLOAD·🇺🇸 United States

Gelanceerd Sep 5, 2022 vanaf Cape Canaveral Space Force Station

Loading…

Volgende Passages (komende 24 uur)

TLE

VersSource: CelesTrak SupGP

Epoch: Sep 14, 2026, 21:39 UTC

1 53723C 22107Z   26257.90256944 -.00004879  00000+0 -13961-3 0  2572
2 53723  53.1571 111.8700 0001333  84.0555 233.2861 15.35396227    18

Volg STARLINK-4705 in realtime met AllMySat

Download on the App Store